Sparta, IL

8:02 PM CST on November 16, 2019 (GMT -0600)
Sparta Community-Hunter

Weather History for KSAR - September, 2019

Change the Weather History Date:

Saturday, September 21, 2019

  Actual Average (WUND) Record (WUND)
Temperature  
Mean Temperature 77 °F -  
Max Temperature 86 °F - - (-1)
Min Temperature 68 °F - - (-1)
Cooling Degree Days 12    
Growing Degree Days 27 (Base 50)    
Moisture  
Dew Point 68 °F    
Average Humidity 79    
Maximum Humidity 100    
Minimum Humidity 50    
Precipitation  
Precipitation 0.00 in - - ()
Sea Level Pressure  
Sea Level Pressure 30.14 in    
Wind  
Wind Speed 7 mph (SSE)    
Max Wind Speed 17 mph    
Max Gust Speed 23 mph    
Visibility 10 miles    
Events Rain    
Averages and records for this station are not official NWS values.
T = Trace of Precipitation, MM = Missing Value Source: NWS Daily Summary

Daily Weather History Graph

Daily Weather History Graph

Search for Another Location

Airport or City:

Astronomy

Sep. 21, 2019 Rise Set
Actual Time 6:45 AM CDT 6:57 PM CDT
Civil Twilight 6:19 AM CDT 7:23 PM CDT
Nautical Twilight 5:48 AM CDT 7:54 PM CDT
Astronomical Twilight 5:16 AM CDT 8:26 PM CDT
Moon 11:41 PM CDT (9/21) 1:45 PM CDT (9/21)
Length of Visible Light 13h 04m
Length of Day
12h 12m
Waning Gibbous, 54% of the Moon is Illuminated
Sep 21
Waning Gibbous
Sep 21
Last Quarter
Sep 28
New
Oct 5
First Quarter
Oct 13
Full

Hourly Weather History & Observations

Time (CDT) Temp. Heat Index Dew Point Humidity Pressure Visibility Wind Dir Wind Speed Gust Speed Precip Events Conditions
12:15 AM 68.2 °F - 68.0 °F 99% 30.15 in 10.0 mi SE 4.6 mph - N/A   Clear
12:35 AM 68.2 °F - 68.2 °F 100% 30.15 in 10.0 mi SSE 5.8 mph - N/A   Clear
12:55 AM 68.5 °F - 68.4 °F 99% 30.15 in 10.0 mi SSE 5.8 mph - N/A   Clear
1:15 AM 69.1 °F - 68.9 °F 99% 30.15 in 10.0 mi SSE 4.6 mph - N/A   Clear
1:35 AM 68.9 °F - 68.5 °F 99% 30.16 in 10.0 mi SE 4.6 mph - N/A   Clear
1:55 AM 69.1 °F - 68.9 °F 99% 30.16 in 10.0 mi SSE 4.6 mph - N/A   Clear
2:15 AM 69.3 °F - 69.3 °F 100% 30.15 in 10.0 mi SE 4.6 mph - N/A   Clear
2:35 AM 69.3 °F - 69.3 °F 100% 30.15 in 10.0 mi SSE 3.5 mph - N/A   Clear
3:15 AM 68.9 °F - 68.9 °F 100% 30.15 in 10.0 mi SE 4.6 mph - N/A   Clear
3:35 AM 68.5 °F - 68.5 °F 100% 30.15 in 7.0 mi SSE 3.5 mph - N/A   Clear
3:55 AM 68.7 °F - 68.7 °F 100% 30.15 in 7.0 mi SE 3.5 mph - N/A   Clear
4:15 AM 68.9 °F - 68.9 °F 100% 30.15 in 7.0 mi SE 4.6 mph - N/A   Clear
4:35 AM 68.9 °F - 68.9 °F 100% 30.15 in 7.0 mi SSE 3.5 mph - N/A   Scattered Clouds
4:55 AM 70.0 °F - 69.3 °F 98% 30.15 in 10.0 mi SSE 5.8 mph - N/A   Scattered Clouds
5:15 AM 71.4 °F - 68.9 °F 92% 30.16 in 10.0 mi South 5.8 mph - N/A   Mostly Cloudy
5:35 AM 71.8 °F - 68.5 °F 89% 30.16 in 10.0 mi South 6.9 mph - N/A   Overcast
5:55 AM 72.1 °F - 68.2 °F 87% 30.17 in 10.0 mi South 6.9 mph - N/A   Overcast
6:15 AM 72.5 °F - 68.0 °F 86% 30.17 in 10.0 mi South 8.1 mph - N/A   Overcast
6:35 AM 72.5 °F - 67.6 °F 85% 30.17 in 10.0 mi South 8.1 mph - N/A   Overcast
6:55 AM 72.3 °F - 67.6 °F 85% 30.18 in 10.0 mi South 6.9 mph - N/A   Overcast
7:15 AM 72.0 °F - 67.5 °F 86% 30.18 in 10.0 mi South 6.9 mph - N/A   Overcast
7:35 AM 71.6 °F - 67.5 °F 87% 30.18 in 10.0 mi South 6.9 mph - N/A   Overcast
7:55 AM 71.8 °F - 67.3 °F 86% 30.19 in 10.0 mi South 8.1 mph - N/A Rain Light Rain
8:15 AM 72.1 °F - 67.1 °F 84% 30.19 in 10.0 mi South 5.8 mph - N/A   Overcast
8:35 AM 72.3 °F - 66.6 °F 82% 30.20 in 10.0 mi South 8.1 mph - N/A   Overcast
8:55 AM 72.5 °F - 66.4 °F 81% 30.20 in 10.0 mi South 8.1 mph - N/A   Overcast
9:15 AM 72.7 °F - 66.2 °F 80% 30.20 in 10.0 mi South 10.4 mph - N/A   Overcast
9:35 AM 72.5 °F - 66.0 °F 80% 30.20 in 10.0 mi South 8.1 mph - N/A   Overcast
9:55 AM 72.5 °F - 66.2 °F 81% 30.20 in 10.0 mi South 8.1 mph - N/A Rain Light Rain
10:15 AM 73.0 °F - 66.2 °F 79% 30.20 in 10.0 mi South 6.9 mph - N/A   Overcast
10:35 AM 73.4 °F - 65.8 °F 77% 30.20 in 10.0 mi South 8.1 mph - N/A   Overcast
10:55 AM 74.3 °F - 66.2 °F 76% 30.19 in 10.0 mi South 10.4 mph - N/A   Overcast
11:15 AM 74.7 °F - 66.2 °F 75% 30.19 in 10.0 mi South 9.2 mph - N/A   Overcast
11:35 AM 76.6 °F - 66.6 °F 71% 30.18 in 10.0 mi South 12.7 mph - N/A   Overcast
11:55 AM 77.2 °F - 67.1 °F 71% 30.18 in 10.0 mi South 13.8 mph 21.9 mph N/A Rain Light Rain
12:15 PM 77.9 °F - 66.7 °F 68% 30.17 in 10.0 mi South 12.7 mph 19.6 mph N/A   Mostly Cloudy
12:35 PM 77.4 °F - 66.6 °F 69% 30.16 in 10.0 mi South 11.5 mph - N/A   Overcast
12:55 PM 77.9 °F - 66.2 °F 67% 30.16 in 10.0 mi South 15.0 mph 19.6 mph N/A   Overcast
1:15 PM 79.0 °F - 66.4 °F 65% 30.15 in 10.0 mi SSW 9.2 mph - N/A   Overcast
1:35 PM 80.1 °F 82.4 °F 67.3 °F 65% 30.15 in 10.0 mi South 9.2 mph - N/A   Overcast
1:55 PM 82.2 °F 85.1 °F 67.8 °F 62% 30.14 in 10.0 mi South 10.4 mph - N/A   Overcast
2:15 PM 85.3 °F 87.6 °F 66.2 °F 53% 30.13 in 10.0 mi South 12.7 mph 20.7 mph N/A   Mostly Cloudy
2:35 PM 86.2 °F 88.2 °F 65.5 °F 50% 30.12 in 10.0 mi South 17.3 mph 23.0 mph N/A   Scattered Clouds
2:55 PM 86.2 °F 88.4 °F 65.8 °F 51% 30.11 in 10.0 mi South 15.0 mph 20.7 mph N/A   Mostly Cloudy
3:15 PM 85.3 °F 87.4 °F 66.0 °F 52% 30.11 in 10.0 mi South 12.7 mph 16.1 mph N/A   Overcast
3:35 PM 85.3 °F 88.2 °F 67.6 °F 55% 30.10 in 10.0 mi South 15.0 mph 19.6 mph N/A   Scattered Clouds
3:55 PM 84.9 °F 87.9 °F 67.5 °F 56% 30.10 in 10.0 mi South 10.4 mph 17.3 mph N/A   Mostly Cloudy
4:15 PM 83.3 °F 86.2 °F 67.6 °F 59% 30.10 in 10.0 mi South 11.5 mph 20.7 mph N/A   Scattered Clouds
4:35 PM 83.7 °F 86.7 °F 68.0 °F 59% 30.09 in 10.0 mi South 13.8 mph 19.6 mph N/A   Mostly Cloudy
4:55 PM 83.3 °F 86.4 °F 68.0 °F 60% 30.09 in 10.0 mi South 15.0 mph 20.7 mph N/A   Scattered Clouds
5:15 PM 82.9 °F 86.3 °F 68.5 °F 62% 30.10 in 10.0 mi South 9.2 mph 16.1 mph N/A   Clear
5:35 PM 82.4 °F 85.8 °F 69.1 °F 64% 30.09 in 10.0 mi South 8.1 mph - N/A   Scattered Clouds
5:55 PM 82.8 °F 86.2 °F 68.9 °F 63% 30.09 in 10.0 mi South 9.2 mph - N/A   Scattered Clouds
6:15 PM 82.4 °F 85.8 °F 68.9 °F 64% 30.09 in 10.0 mi South 6.9 mph - N/A   Clear
6:35 PM 81.3 °F 84.5 °F 68.9 °F 66% 30.09 in 10.0 mi South 4.6 mph - N/A   Clear
6:55 PM 80.2 °F 83.1 °F 68.9 °F 68% 30.09 in 10.0 mi South 4.6 mph - N/A   Clear
7:15 PM 78.1 °F - 69.3 °F 74% 30.09 in 10.0 mi SSE 3.5 mph - N/A   Clear
7:35 PM 77.2 °F - 69.1 °F 76% 30.09 in 10.0 mi SSE 4.6 mph - N/A   Clear
7:55 PM 77.0 °F - 68.9 °F 76% 30.09 in 10.0 mi SSE 3.5 mph - N/A   Clear
8:15 PM 76.1 °F - 69.6 °F 80% 30.09 in 10.0 mi SSE 4.6 mph - N/A   Clear
8:35 PM 75.7 °F - 69.6 °F 81% 30.10 in 10.0 mi SSE 4.6 mph - N/A   Clear
8:55 PM 75.4 °F - 69.4 °F 82% 30.10 in 10.0 mi SSE 5.8 mph - N/A   Clear
9:15 PM 75.2 °F - 69.4 °F 82% 30.09 in 10.0 mi SSE 5.8 mph - N/A   Clear
9:35 PM 75.0 °F - 69.3 °F 82% 30.09 in 10.0 mi SE 4.6 mph - N/A   Clear
9:55 PM 73.6 °F - 69.1 °F 86% 30.09 in 10.0 mi SE 4.6 mph - N/A   Clear
10:15 PM 74.8 °F - 67.8 °F 79% 30.09 in 10.0 mi SSE 5.8 mph - N/A   Clear
10:35 PM 75.6 °F - 66.2 °F 73% 30.09 in 10.0 mi SSE 8.1 mph - N/A   Clear
10:55 PM 74.3 °F - 66.0 °F 75% 30.09 in 10.0 mi SSE 5.8 mph - N/A   Clear
11:15 PM 73.0 °F - 65.8 °F 78% 30.09 in 10.0 mi SSE 5.8 mph - N/A   Clear
11:35 PM 72.5 °F - 65.3 °F 78% 30.08 in 10.0 mi SE 5.8 mph - N/A   Clear
11:55 PM 70.9 °F - 65.5 °F 83% 30.08 in 10.0 mi SE 4.6 mph - N/A   Clear